Location: Unspecified
(35.6961°N, 0.0000°E)
Time: 09:26:02
(UTC+00:00)

UNISAT 6 - Pass Details

Date: 19 June 2019
Orbit: 607 x 689 km, 97.8° (Epoch: 17 July)

Event Time Altitude Azimuth Distance (km) Brightness Sun altitude
Rises 22:04:57 0° 350° (N) 2,880 ? -24.8°
Reaches altitude 10° 22:07:59 10° 326° (NW) 1,979 ? -25.1°
Maximum altitude 22:10:19 15° 293° (WNW) 1,705 ? -25.3°
Drops below altitude 10° 22:12:39 10° 260° (W) 1,992 ? -25.5°
Enters shadow 22:14:48 - 241° (WSW) 2,595 ? -25.7°
